PST,Max TemperatureF,Mean TemperatureF,Min TemperatureF,Max Dew PointF,MeanDew PointF,Min DewpointF,Max Humidity, Mean Humidity, Min Humidity, Max Sea Level PressureIn, Mean Sea Level PressureIn, Min Sea Level PressureIn, Max VisibilityMiles, Mean VisibilityMiles, Min VisibilityMiles, Max Wind SpeedMPH, Mean Wind SpeedMPH, Max Gust SpeedMPH,PrecipitationIn, CloudCover, Events, WindDirDegrees
2013-1-1,65,54,43,40,33,21,76,48,19,30.23,30.16,30.09,10,10,8,13,3,21,0.00,2,,123
2013-1-2,72,57,41,33,26,15,62,37,12,30.13,30.07,30.03,10,10,10,16,3,24,0.00,0,,332
2013-1-3,74,57,39,34,29,17,70,42,13,30.17,30.10,30.06,10,10,10,13,2,18,0.00,0,,126
2013-1-4,69,54,39,36,27,16,64,39,14,30.27,30.21,30.17,10,10,10,8,1,14,0.00,0,,203
2013-1-5,67,53,39,41,32,23,71,45,19,30.28,30.23,30.18,10,10,9,8,2,12,0.00,0,,115
2013-1-6,61,55,48,47,44,41,83,66,49,30.20,30.11,30.03,10,9,3,13,3,23,0.03,6,Rain,220
2013-1-7,68,56,43,43,38,31,83,55,26,30.09,30.02,29.98,10,10,8,9,2,15,0.00,0,,180
2013-1-8,71,57,42,51,44,32,83,62,41,30.11,30.07,30.02,10,10,10,7,2,18,0.00,0,,178
2013-1-9,70,58,46,52,46,41,86,61,36,30.12,30.06,30.02,10,9,6,8,1,14,0.00,3,,177
2013-1-10,62,55,48,51,38,20,86,53,19,30.09,29.97,29.91,10,10,7,17,7,30,0.01,4,Rain,274
2013-1-11,59,50,40,29,23,19,53,38,23,30.18,30.11,30.05,10,10,10,17,6,24,0.00,0,,298
2013-1-12,59,47,35,32,25,15,65,43,20,30.16,30.10,30.06,10,10,10,14,2,17,0.00,0,,158
2013-1-13,59,47,35,29,24,15,70,45,19,30.17,30.10,30.06,10,10,10,12,2,17,0.00,0,,111
2013-1-14,59,51,42,23,10,-1,28,19,10,30.33,30.26,30.15,10,10,10,18,9,25,0.00,0,,93
2013-1-15,63,49,35,35,22,11,56,35,13,30.45,30.37,30.32,10,10,10,10,3,14,0.00,0,,305
2013-1-16,73,56,38,36,30,24,70,43,16,30.35,30.24,30.12,10,10,10,7,1,12,0.00,0,,297
2013-1-17,83,63,43,33,23,13,60,34,7,30.16,30.10,30.04,10,10,10,20,4,25,0.00,0,,63
2013-1-18,83,66,48,32,24,16,39,24,8,30.13,30.09,30.04,10,10,10,18,5,23,0.00,0,,78
2013-1-19,83,65,46,31,24,12,48,28,7,30.17,30.10,30.06,10,10,10,14,2,17,0.00,0,,117
2013-1-20,85,65,45,31,21,5,46,26,5,30.13,30.07,29.99,10,10,10,14,3,16,0.00,0,,55
2013-1-21,86,65,44,32,25,13,53,30,7,30.08,30.03,29.99,10,10,10,12,2,18,0.00,0,,265
2013-1-22,84,64,44,33,26,16,49,29,8,30.09,30.04,30.00,10,10,10,8,1,10,0.00,0,,256
2013-1-23,78,66,54,52,35,28,47,33,19,30.14,30.05,30.00,10,10,10,10,2,15,0.00,2,Rain,138
2013-1-24,71,64,57,57,53,50,86,73,59,30.20,30.13,30.10,10,8,2,14,8,18,0.57,7,Rain,73
2013-1-25,69,65,61,59,57,55,84,73,61,30.10,30.02,29.94,10,10,9,18,10,23,0.11,8,Rain,79
2013-1-26,69,64,58,61,57,54,93,81,68,30.00,29.93,29.89,10,7,1,10,2,14,0.06,7,Rain,205
2013-1-27,64,60,56,54,49,37,87,70,52,30.02,29.99,29.96,10,8,2,14,6,21,T,7,,171
2013-1-28,64,54,43,42,35,25,83,53,22,30.17,30.09,30.02,10,10,10,13,3,20,0.00,0,,286
2013-1-29,62,52,41,42,37,33,70,53,36,30.23,30.19,30.15,10,10,10,10,1,35,0.00,0,,140
2013-1-30,72,58,44,43,40,37,76,54,31,30.34,30.25,30.20,10,10,10,8,1,21,0.00,0,,160
2013-1-31,81,64,46,42,40,35,76,48,20,30.23,30.15,30.07,10,10,10,10,2,25,0.00,0,,293